{"data":{"norad_id":67650,"intl_designator":"2026-022C","name":"STARLINK-36703","alt_names":[],"object_type":"PAYLOAD","status":"ACTIVE","operator":null,"country":"US","launch_date":"2026-02-02","launch_site_code":"AFWTR","launch_vehicle":null,"mission":null,"orbit_class":"UNKNOWN","rcs_meters":null,"size_class":null,"mass_kg":null,"dimensions":null,"purposes":["comms"],"wikipedia_slug":null,"has_3d_model":false,"image_url":null,"decayed_at":null,"tle_current":{"epoch":"2026-05-25T02:29:09.802752Z","epoch_age_seconds":69276,"freshness":"FRESH","line1":"1 67650U 26022C   26145.10358568  .00002942  00000+0  93415-4 0  9992","line2":"2 67650  97.2837 178.3628 0001323  94.3974 265.7420 15.33442352 17288","mean_motion":15.33442352,"eccentricity":0.0001323,"inclination_deg":97.2837,"raan_deg":178.3628,"arg_perigee_deg":94.3974,"mean_anomaly_deg":265.742,"bstar":9.3415e-5,"rev_number":1728,"period_min":93.906366817238,"perigee_km":464.64563314502,"apogee_km":466.45647300386,"semimajor_km":6843.6880530744,"source":"CELESTRAK","updated_at":"2026-05-25T13:38:21.656567Z"}}}